Weather History for Guatemala Aeropuertola Aurora, Guatemala

Change the Weather History Date:

Tuesday, July 30, 2013

  Actual Average Record
Temperature  
Mean Temperature 68 °F -  
Max Temperature 73 °F 75 °F - ()
Min Temperature 62 °F 60 °F - ()
Cooling Degree Days 2    
Growing Degree Days 18 (Base 50)    
Moisture  
Dew Point 60 °F    
Average Humidity 80    
Maximum Humidity 100    
Minimum Humidity 60    
Precipitation  
Precipitation 0.00 in - - ()
Sea Level Pressure  
Sea Level Pressure 30.35 in    
Wind  
Wind Speed 10 mph ()    
Max Wind Speed 16 mph    
Max Gust Speed -    
Visibility 5.1 miles    
Events Rain , Thunderstorm    
T = Trace of Precipitation, MM = Missing Value Source: Averaged Metar Reports

Daily Weather History Graph

Daily Weather History Graph

Search for Another Location

Airport:

Trip Planner

Search our weather history database for the weather conditions in past years. The results will help you decide how hot, cold, wet, or windy it might be!

Date:

Astronomy

Jul. 30, 2013 Rise Set
Actual Time 5:45 AM CST 6:31 PM CST
Civil Twilight 5:22 AM CST 6:54 PM CST
Nautical Twilight 4:55 AM CST 7:21 PM CST
Astronomical Twilight 4:28 AM CST 7:48 PM CST
Moon No Moon Rise 12:54 PM CST (7/30)
Length of Visible Light 13h 32m
Length of Day
12h 46m
Last Quarter, 40% of the Moon is Illuminated
Jul 30
Last Quarter
Aug 6
New
Aug 14
First Quarter
Aug 20
Full
Aug 28
Last Quarter

Hourly Weather History & Observations

Time (CST) Temp. Dew Point Humidity Pressure Visibility Wind Dir Wind Speed Gust Speed Precip Events Conditions
12:00 AM 64.4 °F 57.2 °F 77% 30.39 in 6.2 mi North 16.1 mph - N/A   Scattered Clouds
1:00 AM 64.4 °F 59.0 °F 83% 30.36 in 6.2 mi North 16.1 mph - N/A   Scattered Clouds
2:00 AM 62.6 °F 57.2 °F 82% 30.36 in 6.2 mi North 13.8 mph - N/A   Scattered Clouds
3:00 AM 62.6 °F 60.8 °F 94% 30.33 in 6.2 mi North 9.2 mph - N/A   Mostly Cloudy
4:00 AM 62.6 °F 59.0 °F 88% 30.33 in 6.2 mi North 11.5 mph - N/A   Mostly Cloudy
5:00 AM 62.6 °F 59.0 °F 88% 30.33 in 6.2 mi North 11.5 mph - N/A   Mostly Cloudy
6:00 AM 62.6 °F 59.0 °F 88% 30.36 in 6.2 mi North 13.8 mph - N/A   Mostly Cloudy
7:00 AM 62.6 °F 60.8 °F 94% 30.36 in 6.2 mi North 13.8 mph - N/A   Mostly Cloudy
8:00 AM 64.4 °F 59.0 °F 83% 30.36 in 6.2 mi North 11.5 mph - N/A   Mostly Cloudy
9:00 AM 66.2 °F 59.0 °F 78% 30.39 in 6.2 mi North 11.5 mph - N/A   Mostly Cloudy
10:00 AM 71.6 °F 60.8 °F 69% 30.39 in 6.2 mi North 11.5 mph - N/A   Mostly Cloudy
11:00 AM 71.6 °F 57.2 °F 60% 30.39 in 6.2 mi North 16.1 mph - N/A   Mostly Cloudy
12:00 PM 73.4 °F 59.0 °F 61% 30.36 in 6.2 mi NNE 13.8 mph - N/A   Mostly Cloudy
1:00 PM 73.4 °F 59.0 °F 61% 30.36 in 6.2 mi North 9.2 mph - N/A   Mostly Cloudy
2:00 PM 73.4 °F 59.0 °F 61% 30.33 in 6.2 mi NNE 11.5 mph - N/A   Light Drizzle
2:15 PM - - N/A% - 6.2 mi NNE 11.5 mph - N/A   Scattered Clouds
3:00 PM 73.4 °F 60.8 °F 65% 30.30 in 6.2 mi North 13.8 mph - N/A   Mostly Cloudy
4:00 PM 73.4 °F 60.8 °F 65% 30.27 in 6.2 mi North 11.5 mph - N/A   Mostly Cloudy
5:00 PM 73.4 °F 60.8 °F 65% 30.27 in 6.2 mi NNE 11.5 mph - N/A   Light Drizzle
5:05 PM - - N/A% - 5.0 mi NE 9.2 mph - N/A Rain Rain
5:13 PM - - N/A% - 2.5 mi North 9.2 mph - N/A Rain , Thunderstorm Thunderstorms and Rain
5:22 PM - - N/A% - 1.9 mi SSE 6.9 mph - N/A Rain , Thunderstorm Thunderstorms and Rain
6:00 PM 66.2 °F 64.4 °F 94% 30.30 in 5.0 mi South 4.6 mph - N/A Rain , Thunderstorm Light Thunderstorms and Rain
6:10 PM - - N/A% - 2.5 mi South 4.6 mph - N/A Rain , Thunderstorm Thunderstorms and Rain
6:28 PM - - N/A% - 1.6 mi SW 4.6 mph - N/A   Overcast
7:00 PM 64.4 °F 64.4 °F 100% 30.33 in 5.0 mi Calm Calm - N/A   Mostly Cloudy
7:20 PM - - N/A% - 2.5 mi SW 4.6 mph - N/A   Overcast
7:40 PM - - N/A% - 0.9 mi East 11.5 mph - N/A Rain , Thunderstorm Heavy Thunderstorms and Rain
7:45 PM - - N/A% - 0.9 mi NE 11.5 mph - N/A Rain , Thunderstorm Heavy Thunderstorms and Rain
8:00 PM 62.6 °F 59.0 °F 88% 30.36 in 4.3 mi Variable 3.5 mph - N/A Rain , Thunderstorm Thunderstorms and Rain
9:00 PM 62.6 °F 60.8 °F 94% 30.39 in 6.2 mi North 4.6 mph - N/A   Light Drizzle
10:00 PM 62.6 °F 60.8 °F 94% 30.42 in 6.2 mi Calm Calm - N/A   Light Drizzle
11:00 PM 62.6 °F 60.8 °F 94% 30.42 in 6.2 mi North 9.2 mph - N/A   Light Drizzle